Tavèrnoles





Hora UTC 08:35
Temperatura 0.9 ºC
Humitat 96.0 %
Pressió 1001.6 hPa
Pluja 0.2 mm
Velocitat vent 0.0 km/h
Direcció vent S
Radiació solar 56.0 W/m²

Dades diàries 2019-11-15



Hora UTC (hivern +1h; estiu +2h)
Temperatura (ºC) Humitat (%) Pressió (hPa) Velocitat vent (km/h) Precipitació (mm) Radiació solar (W/m²)
Hora UTC Aire Humitat Pressió Vel. Dir. Vel. Max Dir. Intent. màx 5 min. Rad. Sol.
00:05 1.3 95.0 999.1 3.2 SSW 3.2 0.0 0.0
00:10 1.3 95.0 999.1 1.6 SSE 6.4 0.0 0.0
00:15 1.2 95.0 999.1 0.0 SSW 6.4 0.0 0.0
00:20 1.1 95.0 999.2 4.8 SSW 4.8 0.0 0.0
00:25 1.0 95.0 999.3 0.0 SSW 6.4 0.0 0.0
00:30 1.0 95.0 999.3 0.0 SSW 6.4 0.0 0.0
00:35 0.8 95.0 999.3 0.0 SSW 3.2 0.0 0.0
00:40 0.7 95.0 999.3 0.0 SSW 1.6 0.0 0.0
00:45 0.6 95.0 999.3 0.0 SSW 1.6 0.0 0.0
00:50 0.6 95.0 999.4 0.0 S 3.2 0.0 0.0
00:55 0.4 95.0 999.3 0.0 S 3.2 0.0 0.0
01:00 0.4 95.0 999.3 0.0 S 0.0 0.0 0.0
01:05 0.3 95.0 999.4 0.0 S 0.0 0.0 0.0
01:10 0.2 95.0 999.4 0.0 S 0.0 0.0 0.0
01:15 0.2 95.0 999.4 0.0 S 0.0 0.0 0.0
01:20 0.1 95.0 999.5 0.0 S 1.6 0.0 0.0
01:25 0.0 95.0 999.6 0.0 S 1.6 0.0 0.0
01:30 -0.1 95.0 999.6 0.0 S 1.6 0.0 0.0
01:35 -0.1 95.0 999.7 0.0 S 1.6 0.0 0.0
01:40 -0.2 95.0 999.7 0.0 S 1.6 0.0 0.0
01:45 -0.2 95.0 999.8 0.0 S 1.6 0.0 0.0
01:50 -0.2 95.0 999.9 0.0 S 0.0 0.0 0.0
01:55 -0.2 95.0 999.9 0.0 S 0.0 0.0 0.0
02:00 -0.3 95.0 999.7 0.0 S 0.0 0.0 0.0
02:05 -0.3 95.0 999.8 0.0 S 0.0 0.0 0.0
02:10 -0.3 95.0 999.8 0.0 S 0.0 0.0 0.0
02:15 -0.4 95.0 999.7 0.0 S 0.0 0.0 0.0
02:20 -0.4 95.0 999.7 0.0 S 0.0 0.0 0.0
02:25 -0.4 95.0 999.7 0.0 S 0.0 0.0 0.0
02:30 -0.4 95.0 999.8 0.0 S 1.6 0.0 0.0
02:35 -0.4 95.0 999.8 0.0 S 1.6 0.0 0.0
02:40 -0.4 95.0 999.7 0.0 S 0.0 0.0 0.0
02:45 -0.5 95.0 999.9 0.0 S 0.0 0.0 0.0
02:50 -0.6 95.0 999.9 0.0 S 0.0 0.0 0.0
02:55 -0.6 95.0 1000.0 0.0 S 0.0 0.0 0.0
03:00 -0.6 96.0 999.9 0.0 S 0.0 0.0 0.0
03:05 -0.6 96.0 999.9 0.0 S 0.0 0.0 0.0
03:10 -0.5 96.0 999.9 0.0 S 0.0 0.0 0.0
03:15 -0.5 96.0 999.9 0.0 S 0.0 0.0 0.0
03:20 -0.5 96.0 999.9 0.0 S 0.0 0.0 0.0
03:25 -0.5 96.0 999.9 0.0 S 0.0 0.0 0.0
03:30 -0.4 96.0 999.9 0.0 S 3.2 0.0 0.0
03:35 -0.4 96.0 999.8 0.0 S 3.2 0.0 0.0
03:40 -0.3 96.0 999.8 0.0 S 1.6 0.0 0.0
03:45 -0.3 96.0 999.8 0.0 S 1.6 0.0 0.0
03:50 -0.3 96.0 999.8 0.0 S 0.0 0.0 0.0
03:55 -0.4 96.0 999.8 0.0 S 0.0 0.0 0.0
04:00 -0.5 96.0 999.9 0.0 S 0.0 0.0 0.0
04:05 -0.5 96.0 999.9 0.0 S 0.0 0.0 0.0
04:10 -0.4 96.0 1000.0 0.0 S 0.0 0.0 0.0
04:15 -0.4 96.0 1000.0 0.0 S 0.0 0.0 0.0
04:20 -0.5 96.0 1000.0 0.0 S 0.0 0.0 0.0
04:25 -0.5 96.0 1000.1 0.0 S 0.0 0.0 0.0
04:30 -0.5 96.0 1000.1 0.0 S 0.0 0.0 0.0
04:35 -0.5 96.0 1000.1 0.0 S 0.0 0.0 0.0
04:40 -0.6 96.0 1000.0 0.0 S 0.0 0.0 0.0
04:45 -0.7 96.0 999.9 0.0 S 0.0 0.0 0.0
04:50 -0.7 96.0 1000.0 0.0 S 0.0 0.0 0.0
04:55 -0.8 96.0 1000.1 0.0 S 0.0 0.0 0.0
05:00 -0.8 96.0 1000.1 0.0 S 0.0 0.0 0.0
05:05 -0.8 96.0 1000.1 0.0 S 0.0 0.0 0.0
05:10 -0.8 96.0 1000.0 0.0 S 0.0 0.0 0.0
05:15 -0.8 96.0 1000.1 0.0 S 0.0 0.0 0.0
05:20 -0.8 96.0 1000.2 0.0 S 0.0 0.0 0.0
05:25 -0.7 96.0 1000.2 0.0 S 0.0 0.0 0.0
05:30 -0.5 96.0 1000.3 0.0 S 0.0 0.0 0.0
05:35 -0.3 96.0 1000.2 0.0 S 0.0 0.0 0.0
05:40 -0.3 96.0 1000.3 0.0 S 0.0 0.0 0.0
05:45 -0.3 96.0 1000.3 0.0 S 0.0 0.0 0.0
05:50 -0.2 96.0 1000.3 0.0 S 0.0 0.0 0.0
05:55 -0.1 96.0 1000.3 0.0 S 0.0 0.0 0.0
06:00 -0.1 96.0 1000.4 0.0 S 0.0 0.0 0.0
06:05 0.0 96.0 1000.3 0.0 S 0.0 0.0 0.0
06:10 0.0 96.0 1000.4 0.0 S 0.0 0.0 0.0
06:15 0.1 96.0 1000.5 0.0 S 0.0 0.0 0.0
06:20 0.2 96.0 1000.6 0.0 S 0.0 0.0 0.0
06:25 0.2 96.0 1000.6 0.0 S 0.0 0.0 0.0
06:30 0.3 96.0 1000.5 0.0 S 0.0 0.0 0.0
06:35 0.3 96.0 1000.5 0.0 S 0.0 0.0 0.0
06:40 0.3 96.0 1000.5 0.0 S 0.0 0.0 0.0
06:45 0.3 96.0 1000.6 0.0 S 0.0 0.0 0.0
06:50 0.3 96.0 1000.6 0.0 S 0.0 0.0 0.0
06:55 0.3 96.0 1000.7 0.0 S 0.0 0.0 0.0
07:00 0.3 96.0 1000.6 0.0 S 0.0 0.0 5.0
07:05 0.3 96.0 1000.7 0.0 S 0.0 0.0 5.0
07:10 0.4 96.0 1000.7 0.0 S 0.0 0.0 7.0
07:15 0.4 96.0 1000.9 0.0 S 0.0 0.0 7.0
07:20 0.5 96.0 1001.1 0.0 S 0.0 0.0 9.0
07:25 0.6 96.0 1001.1 0.0 S 0.0 0.0 11.0
07:30 0.6 96.0 1001.3 0.0 S 0.0 0.0 12.0
07:35 0.7 96.0 1001.4 0.0 S 0.0 0.0 14.0
07:40 0.7 96.0 1001.5 0.0 S 0.0 0.0 14.0
07:45 0.7 96.0 1001.6 0.0 S 0.0 0.0 14.0
07:50 0.8 96.0 1001.6 4.8 S 4.8 0.0 19.0
07:55 0.8 96.0 1001.6 0.0 S 4.8 0.0 25.0
08:00 0.8 96.0 1001.5 0.0 S 4.8 0.2 33.0
08:05 0.9 97.0 1001.6 1.6 S 4.8 0.0 32.0
08:10 0.9 97.0 1001.6 0.0 S 4.8 0.0 35.0
08:15 0.9 96.0 1001.4 0.0 S 6.4 0.0 42.0
08:20 0.8 96.0 1001.4 0.0 S 6.4 0.0 53.0
08:25 0.8 96.0 1001.5 0.0 S 1.6 0.0 56.0
08:30 0.8 96.0 1001.5 0.0 S 0.0 0.0 49.0
08:35 0.9 96.0 1001.6 0.0 S 0.0 0.0 56.0
Màxima 2.1 97.0 1001.6 4.8 S 6.4 0.2 56.0
Mínima -0.9 95.0 999.1
Total 0.2